CW4115 Weather Reports


time (UTC)temp
C
wind
direction
speed
KPH
gust
KPH
rain 1hr
cm
rain 24hr
cm
rain mn
cm
humidity
%
barometer
mb
20260507000323 22 14 9.7 19.3 0.00 0.00 0.00 58 1015.5
20260506233323 23 331 4.8 16.1 0.00 0.00 0.00 56 1015.5
20260506230344 23 44 3.2 16.1 0.00 0.00 0.00 55 1015.7
20260506223320 23 5 4.8 16.1 0.00 0.00 0.00 55 1016.1
20260506220343 23 43 3.2 9.7 0.00 0.00 0.00 53 1016.2
20260506213405 23 292 0.0 8.0 0.00 0.00 0.00 53 1016.7
20260506210358 22 46 3.2 14.5 0.00 0.00 0.00 57 1016.8
20260506203335 22 102 4.8 11.3 0.00 0.00 0.00 55 1017.2
20260506200352 21 259 6.4 12.9 0.00 0.00 0.00 58 1017.3
20260506193352 21 315 1.6 11.3 0.00 0.00 0.00 60 1017.7
20260506190335 20 281 1.6 6.4 0.00 0.00 0.00 61 1017.8
20260506183327 18 360 3.2 6.4 0.00 0.00 0.00 65 1018.2
20260506180324 18 13 4.8 11.3 0.00 0.00 0.00 65 1018.2
20260506173346 17 288 3.2 8.0 0.00 0.00 0.00 70 1018.3
20260506170333 17 282 3.2 8.0 0.00 0.00 0.00 72 1018.3
20260506163338 16 332 1.6 6.4 0.00 0.00 0.00 75 1018.3
20260506160329 16 360 1.6 6.4 0.00 0.00 0.00 75 1018.3
20260506153345 15 254 0.0 6.4 0.00 0.00 0.00 79 1018.3
20260506150359 14 360 1.6 6.4 0.00 0.00 0.00 80 1018.3
20260506143337 13 360 0.0 0.0 0.00 0.00 0.00 80 1018.2
20260506140324 13 360 0.0 3.2 0.00 0.00 0.00 81 1017.9
20260506133328 13 360 0.0 0.0 0.00 0.00 0.00 81 1017.4
20260506130324 13 360 0.0 1.6 0.00 0.00 0.00 81 1017.2
20260506123325 13 360 0.0 0.0 0.00 0.00 0.00 80 1017.2
20260506120345 13 360 1.6 3.2 0.00 0.00 0.00 80 1016.9
20260506113404 13 360 0.0 0.0 0.00 0.00 0.00 80 1016.7
20260506110337 13 360 0.0 0.0 0.00 0.00 0.00 80 1016.7
20260506103342 14 360 0.0 4.8 0.00 0.00 0.00 80 1016.6
20260506100337 14 360 0.0 0.0 0.00 0.00 0.00 80 1016.6
20260506093340 14 360 0.0 0.0 0.00 0.00 0.00 80 1016.7
20260506090336 14 360 0.0 3.2 0.00 0.00 0.00 80 1016.6
20260506083343 14 360 0.0 1.6 0.00 0.00 0.00 79 1016.7
20260506080330 14 360 1.6 6.4 0.00 0.00 0.00 79 1016.6
20260506073331 14 360 3.2 8.0 0.00 0.00 0.00 79 1016.3
20260506070341 14 16 1.6 6.4 0.00 0.00 0.00 78 1016.2
20260506060333 15 355 6.4 11.3 0.00 0.00 0.00 77 1015.7
20260506050326 15 360 1.6 4.8 0.00 0.00 0.00 73 1015.3
20260506043343 15 360 0.0 3.2 0.00 0.00 0.00 71 1015.1
20260506040333 15 360 1.6 4.8 0.00 0.00 0.00 71 1014.7
20260506033331 15 360 0.0 1.6 0.00 0.00 0.00 72 1014.2
20260506030337 15 360 0.0 1.6 0.00 0.00 0.00 72 1014.0
20260506023341 15 355 0.0 8.0 0.00 0.00 0.00 72 1013.7
20260506020336 16 277 0.0 1.6 0.00 0.00 0.00 72 1013.6
20260506013341 16 269 0.0 4.8 0.00 0.00 0.00 71 1013.6
20260506010319 16 227 0.0 4.8 0.00 0.00 0.00 69 1013.6
20260506003344 16 250 0.0 4.8 0.00 0.00 0.00 69 1013.5